| time (UTC) | temp F | wind direction | speed knots | gust knots | rain 1hr in | rain 24hr in | rain mn in | humidity % | barometer mb |
| 20260502231511 | 42 | 310 | 2.6 | 8.7 | 0.00 | 0.04 | 0.01 | 62 | 1014.4 |
| 20260502230016 | 42 | 309 | 6.1 | 9.6 | 0.00 | 0.04 | 0.01 | 60 | 1014.3 |
| 20260502224521 | 42 | 331 | 6.1 | 10.4 | 0.00 | 0.04 | 0.01 | 60 | 1014.2 |
| 20260502223013 | 43 | 302 | 1.7 | 8.7 | 0.00 | 0.04 | 0.01 | 59 | 1014.1 |
| 20260502221508 | 43 | 299 | 5.2 | 10.4 | 0.00 | 0.04 | 0.01 | 57 | 1014.1 |
| 20260502220013 | 43 | 306 | 7.0 | 11.3 | 0.00 | 0.04 | 0.01 | 57 | 1014.1 |
| 20260502214519 | 43 | 286 | 5.2 | 10.4 | 0.00 | 0.04 | 0.01 | 57 | 1014.0 |
| 20260502213022 | 44 | 5 | 5.2 | 10.4 | 0.00 | 0.04 | 0.01 | 57 | 1014.0 |
| 20260502211508 | 44 | 329 | 6.1 | 13.0 | 0.00 | 0.04 | 0.01 | 56 | 1014.1 |
| 20260502210012 | 44 | 319 | 5.2 | 13.9 | 0.00 | 0.04 | 0.01 | 59 | 1014.1 |
| 20260502204518 | 44 | 327 | 6.1 | 10.4 | 0.00 | 0.04 | 0.01 | 54 | 1014.0 |
| 20260502203022 | 45 | 343 | 5.2 | 10.4 | 0.00 | 0.04 | 0.01 | 56 | 1013.9 |
| 20260502201525 | 44 | 324 | 7.0 | 16.5 | 0.00 | 0.04 | 0.01 | 56 | 1014.0 |
| 20260502200010 | 45 | 24 | 7.0 | 13.0 | 0.00 | 0.04 | 0.01 | 52 | 1014.1 |
| 20260502194516 | 44 | 273 | 6.1 | 18.2 | 0.00 | 0.04 | 0.01 | 53 | 1014.3 |
| 20260502193020 | 45 | 320 | 5.2 | 14.8 | 0.00 | 0.04 | 0.01 | 53 | 1014.4 |
| 20260502191522 | 43 | 323 | 6.1 | 12.2 | 0.00 | 0.04 | 0.01 | 52 | 1014.4 |
| 20260502190040 | 43 | 275 | 7.0 | 16.5 | 0.00 | 0.04 | 0.01 | 49 | 1014.5 |
| 20260502184513 | 42 | 311 | 5.2 | 14.8 | 0.00 | 0.04 | 0.01 | 56 | 1014.6 |
| 20260502183018 | 42 | 319 | 6.1 | 11.3 | 0.00 | 0.04 | 0.01 | 57 | 1014.6 |
| 20260502181519 | 43 | 250 | 7.0 | 11.3 | 0.00 | 0.04 | 0.01 | 57 | 1014.5 |
| 20260502163016 | 42 | 346 | 10.4 | 17.4 | 0.00 | 0.04 | 0.01 | 57 | 1014.5 |
| 20260502161517 | 42 | 292 | 6.1 | 14.8 | 0.00 | 0.04 | 0.01 | 63 | 1014.5 |
| 20260502151537 | 40 | 318 | 4.3 | 12.2 | 0.00 | 0.04 | 0.01 | 70 | 1014.8 |
| 20260502123003 | 35 | 294 | 5.2 | 9.6 | 0.00 | 0.04 | 0.01 | 88 | 1015.3 |
| 20260502121504 | 35 | 345 | 3.5 | 8.7 | 0.00 | 0.04 | 0.01 | 89 | 1015.3 |
| 20260502114515 | 35 | 285 | 3.5 | 8.7 | 0.00 | 0.04 | 0.01 | 91 | 1015.0 |
| 20260502113014 | 34 | 299 | 2.6 | 6.1 | 0.00 | 0.04 | 0.01 | 91 | 1015.0 |
| 20260502111504 | 34 | 293 | 4.3 | 11.3 | 0.00 | 0.04 | 0.01 | 90 | 1014.7 |
| 20260502110011 | 35 | 307 | 2.6 | 7.8 | 0.00 | 0.04 | 0.01 | 91 | 1014.5 |
| 20260502104511 | 35 | 311 | 3.5 | 8.7 | 0.00 | 0.04 | 0.01 | 92 | 1014.4 |
| 20260502103017 | 35 | 306 | 2.6 | 10.4 | 0.00 | 0.04 | 0.01 | 93 | 1014.3 |
| 20260502101524 | 35 | 327 | 2.6 | 6.1 | 0.00 | 0.04 | 0.01 | 95 | 1014.1 |
| 20260502091520 | 36 | 283 | 1.7 | 5.2 | 0.00 | 0.04 | 0.01 | 97 | 1013.3 |
| 20260502071511 | 34 | 235 | 0.0 | 1.7 | 0.00 | 0.03 | 0.00 | 96 | 1013.1 |
| 20260502070035 | 34 | 235 | 0.0 | 0.9 | 0.00 | 0.03 | 0.00 | 96 | 1013.0 |
| 20260502064523 | 35 | 235 | 0.0 | 0.0 | 0.00 | 0.03 | 0.00 | 96 | 1013.0 |
| 20260502063034 | 35 | 235 | 0.0 | 0.9 | 0.00 | 0.03 | 0.00 | 95 | 1013.1 |
| 20260502061510 | 35 | 235 | 0.0 | 1.7 | 0.00 | 0.03 | 0.00 | 96 | 1013.3 |
| 20260502060014 | 36 | 257 | 0.9 | 3.5 | 0.00 | 0.03 | 0.00 | 96 | 1013.6 |
| 20260502054530 | 35 | 246 | 0.0 | 2.6 | 0.00 | 0.03 | 0.00 | 96 | 1013.6 |
| 20260502053024 | 35 | 149 | 0.0 | 0.0 | 0.00 | 0.03 | 0.00 | 95 | 1013.6 |
| 20260502051526 | 35 | 149 | 0.0 | 0.0 | 0.00 | 0.03 | 0.00 | 95 | 1013.7 |
| 20260502050016 | 35 | 149 | 0.0 | 0.0 | 0.00 | 0.03 | 0.00 | 95 | 1013.6 |
| 20260502044516 | 35 | 149 | 0.0 | 0.0 | 0.00 | 0.03 | 0.00 | 94 | 1013.7 |
| 20260502043022 | 36 | 149 | 0.0 | 0.9 | 0.00 | 0.03 | 0.00 | 94 | 1013.7 |
| 20260502041503 | 36 | 149 | 0.0 | 0.9 | 0.00 | 0.03 | 0.00 | 94 | 1013.7 |
| 20260502040008 | 36 | 149 | 0.0 | 1.7 | 0.00 | 0.03 | 0.00 | 94 | 1013.6 |
| 20260502034521 | 36 | 149 | 0.0 | 0.0 | 0.00 | 0.03 | 0.03 | 94 | 1013.6 |
| 20260502033019 | 36 | 149 | 0.0 | 0.0 | 0.01 | 0.03 | 0.03 | 94 | 1013.7 |
| 20260502031524 | 36 | 149 | 0.0 | 1.7 | 0.01 | 0.03 | 0.03 | 94 | 1013.5 |
| 20260502030008 | 36 | 71 | 0.0 | 1.7 | 0.02 | 0.03 | 0.03 | 94 | 1013.4 |
| 20260502024515 | 36 | 71 | 0.0 | 1.7 | 0.02 | 0.03 | 0.03 | 93 | 1013.5 |
| 20260502023016 | 36 | 56 | 0.0 | 1.7 | 0.01 | 0.02 | 0.02 | 92 | 1013.4 |
| 20260502021528 | 37 | 46 | 0.0 | 1.7 | 0.01 | 0.02 | 0.02 | 92 | 1013.5 |
| 20260502020024 | 37 | 34 | 0.9 | 2.6 | 0.01 | 0.01 | 0.01 | 91 | 1013.6 |
| 20260502014514 | 37 | 30 | 0.0 | 1.7 | 0.01 | 0.01 | 0.01 | 91 | 1013.6 |
| 20260502013013 | 37 | 30 | 0.0 | 0.9 | 0.01 | 0.01 | 0.01 | 90 | 1013.5 |
| 20260502011519 | 37 | 30 | 0.0 | 2.6 | 0.01 | 0.01 | 0.01 | 89 | 1013.4 |
| 20260502010020 | 37 | 17 | 0.9 | 3.5 | 0.00 | 0.00 | 0.00 | 87 | 1013.4 |
| 20260502004528 | 38 | 329 | 0.9 | 3.5 | 0.00 | 0.00 | 0.00 | 85 | 1013.4 |
| 20260502003012 | 38 | 30 | 0.9 | 3.5 | 0.00 | 0.00 | 0.00 | 82 | 1013.2 |
| 20260502001518 | 39 | 11 | 0.9 | 3.5 | 0.00 | 0.00 | 0.00 | 79 | 1013.1 |
| 20260502000023 | 39 | 69 | 0.9 | 4.3 | 0.00 | 0.00 | 0.00 | 76 | 1013.0 |
| 20260501234526 | 40 | 49 | 0.9 | 7.0 | 0.00 | 0.00 | 0.00 | 71 | 1012.8 |
| 20260501233025 | 41 | 63 | 1.7 | 9.6 | 0.00 | 0.00 | 0.00 | 66 | 1012.7 |